TimeCDT,TemperatureF,Dew PointF,Humidity,Sea Level PressureIn,VisibilityMPH,Wind Direction,Wind SpeedMPH,Gust SpeedMPH,PrecipitationIn,Events,Conditions,WindDirDegrees,DateUTC
12:15 AM,46.2,28.6,50,29.45,10.0,WNW,10.4,-,N/A,,Mostly Cloudy,290,2012-10-18 05:15:00
12:35 AM,46.4,28.9,51,29.45,10.0,WNW,12.7,18.4,N/A,,Overcast,290,2012-10-18 05:35:00
12:55 AM,47.3,29.7,50,29.45,10.0,WNW,16.1,20.7,N/A,,Overcast,290,2012-10-18 05:55:00
1:15 AM,47.7,30.9,52,29.45,10.0,WNW,17.3,33.4,N/A,,Overcast,290,2012-10-18 06:15:00
1:35 AM,47.3,32.0,55,29.44,10.0,WNW,21.9,29.9,N/A,,Overcast,300,2012-10-18 06:35:00
1:55 AM,46.9,32.2,57,29.44,10.0,WNW,21.9,34.5,N/A,,Overcast,300,2012-10-18 06:55:00
2:15 AM,46.4,32.5,59,29.44,10.0,WNW,19.6,32.2,N/A,,Overcast,300,2012-10-18 07:15:00
2:35 AM,46.4,32.5,59,29.43,10.0,WNW,23.0,32.2,N/A,,Overcast,290,2012-10-18 07:35:00
2:55 AM,45.9,32.9,61,29.43,10.0,WNW,18.4,29.9,N/A,,Light Drizzle,300,2012-10-18 07:55:00
3:15 AM,45.9,32.9,61,29.43,10.0,WNW,24.2,33.4,N/A,,Overcast,300,2012-10-18 08:15:00
3:35 AM,44.8,34.2,66,29.42,10.0,WNW,19.6,32.2,N/A,Rain,Rain,290,2012-10-18 08:35:00
3:55 AM,43.0,36.7,78,29.42,7.0,WNW,21.9,29.9,N/A,,Drizzle,290,2012-10-18 08:55:00
4:15 AM,42.4,37.6,83,29.41,7.0,WNW,17.3,29.9,N/A,,Drizzle,290,2012-10-18 09:15:00
4:35 AM,42.3,37.4,83,29.41,7.0,WNW,20.7,39.1,N/A,,Drizzle,290,2012-10-18 09:35:00
4:55 AM,41.5,37.8,86,29.41,10.0,West,19.6,33.4,N/A,Rain,Light Rain,280,2012-10-18 09:55:00
5:15 AM,41.4,37.8,87,29.40,7.0,West,25.3,34.5,N/A,Rain,Rain,280,2012-10-18 10:15:00
5:35 AM,41.2,37.9,88,29.40,7.0,West,23.0,32.2,N/A,Rain,Rain,280,2012-10-18 10:35:00
5:55 AM,41.0,37.8,88,29.40,7.0,West,26.5,41.4,N/A,Rain,Light Rain,280,2012-10-18 10:55:00
6:35 AM,40.5,37.6,89,29.38,7.0,West,23.0,35.7,N/A,Rain,Rain,280,2012-10-18 11:35:00
6:55 AM,40.3,37.8,91,29.37,7.0,West,25.3,33.4,N/A,Rain,Light Rain,280,2012-10-18 11:55:00
7:15 AM,40.3,37.9,91,29.37,7.0,West,19.6,33.4,N/A,Rain,Light Rain,270,2012-10-18 12:15:00
7:35 AM,40.6,38.3,91,29.36,7.0,West,20.7,34.5,N/A,Rain,Light Rain,280,2012-10-18 12:35:00
7:55 AM,41.0,38.3,90,29.36,7.0,West,20.7,33.4,N/A,Rain,Light Rain,280,2012-10-18 12:55:00
8:15 AM,41.0,38.3,90,29.36,5.0,West,25.3,35.7,0.01,,Heavy Drizzle,280,2012-10-18 13:15:00
8:35 AM,41.0,38.7,91,29.35,5.0,West,21.9,32.2,0.01,,Heavy Drizzle,280,2012-10-18 13:35:00
8:55 AM,41.0,38.7,91,29.35,5.0,West,20.7,31.1,0.01,Rain,Heavy Rain,280,2012-10-18 13:55:00
9:15 AM,41.2,39.2,93,29.35,7.0,West,20.7,27.6,N/A,Rain,Rain,280,2012-10-18 14:15:00
9:35 AM,41.4,39.2,92,29.34,7.0,West,19.6,29.9,N/A,Rain,Light Rain,280,2012-10-18 14:35:00
9:55 AM,41.4,39.2,92,29.34,5.0,WNW,20.7,33.4,N/A,Rain,Light Rain,290,2012-10-18 14:55:00
10:15 AM,41.4,39.2,92,29.34,5.0,West,16.1,33.4,N/A,Rain,Light Rain,280,2012-10-18 15:15:00
10:35 AM,41.4,39.2,92,29.34,7.0,West,20.7,36.8,N/A,Rain,Light Rain,280,2012-10-18 15:35:00
10:55 AM,41.2,39.0,92,29.33,5.0,WNW,20.7,32.2,N/A,Rain,Light Rain,290,2012-10-18 15:55:00
11:15 AM,41.5,39.4,92,29.33,5.0,WNW,17.3,23.0,N/A,Rain,Light Rain,290,2012-10-18 16:15:00
11:35 AM,41.7,39.4,91,29.33,5.0,WNW,20.7,31.1,0.01,Rain,Rain,300,2012-10-18 16:35:00
11:55 AM,42.1,39.4,90,29.33,10.0,WNW,23.0,36.8,0.02,Rain,Light Rain,300,2012-10-18 16:55:00
12:15 PM,42.8,40.1,90,29.33,7.0,WNW,24.2,32.2,N/A,Rain,Light Rain,290,2012-10-18 17:15:00
12:35 PM,43.2,40.3,90,29.32,10.0,WNW,20.7,33.4,N/A,Rain,Rain,300,2012-10-18 17:35:00
12:55 PM,43.7,41.0,90,29.32,7.0,WNW,21.9,27.6,N/A,,Light Drizzle,300,2012-10-18 17:55:00
1:15 PM,43.9,41.0,90,29.32,5.0,WNW,20.7,28.8,N/A,,Light Drizzle,300,2012-10-18 18:15:00
1:35 PM,43.7,41.2,91,29.32,4.0,NW,20.7,29.9,N/A,Rain,Rain,310,2012-10-18 18:35:00
1:55 PM,43.2,41.4,93,29.32,2.5,NW,16.1,29.9,0.01,Rain,Rain,310,2012-10-18 18:55:00
2:15 PM,43.2,41.9,95,29.32,4.0,WNW,16.1,25.3,N/A,Rain,Rain,300,2012-10-18 19:15:00
2:35 PM,43.5,42.1,95,29.32,4.0,WNW,19.6,32.2,0.01,Rain,Rain,300,2012-10-18 19:35:00
2:55 PM,43.9,42.6,95,29.32,5.0,WNW,18.4,24.2,0.01,Rain,Light Rain,290,2012-10-18 19:55:00
3:15 PM,44.6,43.2,95,29.33,5.0,WNW,17.3,25.3,N/A,Rain,Light Rain,300,2012-10-18 20:15:00
3:35 PM,45.1,43.9,95,29.34,5.0,NW,19.6,26.5,0.01,Rain,Rain,310,2012-10-18 20:35:00
3:55 PM,45.7,44.6,96,29.34,7.0,NW,15.0,24.2,0.02,Rain,Rain,310,2012-10-18 20:55:00
4:15 PM,46.6,44.8,93,29.36,10.0,NW,19.6,26.5,N/A,Rain,Light Rain,310,2012-10-18 21:15:00
4:35 PM,46.9,44.8,92,29.37,10.0,NW,20.7,29.9,0.01,Rain,Rain,310,2012-10-18 21:35:00
4:55 PM,47.3,44.2,89,29.38,10.0,NW,18.4,32.2,0.01,,Light Drizzle,320,2012-10-18 21:55:00
5:15 PM,47.1,44.6,91,29.40,10.0,NW,17.3,25.3,N/A,Rain,Rain,310,2012-10-18 22:15:00
5:35 PM,46.8,44.6,92,29.41,10.0,NW,13.8,25.3,N/A,,Drizzle,320,2012-10-18 22:35:00
5:55 PM,46.8,44.2,91,29.43,10.0,NW,17.3,24.2,N/A,,Drizzle,320,2012-10-18 22:55:00
6:15 PM,46.8,44.2,91,29.44,10.0,NW,17.3,27.6,N/A,Rain,Light Rain,320,2012-10-18 23:15:00
6:35 PM,46.0,44.2,93,29.45,10.0,NW,15.0,20.7,N/A,Rain,Light Rain,310,2012-10-18 23:35:00
6:55 PM,45.5,44.1,95,29.45,5.0,WNW,16.1,26.5,N/A,Rain,Light Rain,300,2012-10-18 23:55:00
7:15 PM,45.5,43.7,93,29.47,10.0,NW,19.6,27.6,N/A,Rain,Rain,310,2012-10-19 00:15:00
7:35 PM,45.3,43.0,92,29.48,10.0,NW,20.7,27.6,N/A,Rain,Light Rain,310,2012-10-19 00:35:00
7:55 PM,44.6,41.7,90,29.48,10.0,NW,21.9,31.1,0.01,Rain,Light Rain,310,2012-10-19 00:55:00
8:15 PM,43.7,40.8,90,29.49,10.0,NW,17.3,31.1,N/A,Rain,Light Rain,320,2012-10-19 01:15:00
8:35 PM,43.2,41.0,92,29.49,10.0,NW,19.6,31.1,N/A,Rain,Light Rain,310,2012-10-19 01:35:00
8:55 PM,43.0,40.3,90,29.49,10.0,NW,15.0,28.8,N/A,Rain,Light Rain,310,2012-10-19 01:55:00
9:15 PM,42.8,40.1,90,29.49,10.0,NW,16.1,28.8,N/A,,Drizzle,310,2012-10-19 02:15:00
9:35 PM,42.4,39.9,91,29.50,10.0,NW,18.4,27.6,N/A,,Drizzle,310,2012-10-19 02:35:00
9:55 PM,42.3,40.1,92,29.50,7.0,NW,16.1,23.0,N/A,,Drizzle,310,2012-10-19 02:55:00
10:15 PM,41.9,39.9,93,29.50,7.0,NW,17.3,25.3,0.01,Rain,Light Rain,310,2012-10-19 03:15:00
10:35 PM,41.9,39.9,93,29.49,5.0,NW,15.0,24.2,0.01,Rain,Light Rain,310,2012-10-19 03:35:00
10:55 PM,41.9,40.1,93,29.49,7.0,NW,15.0,21.9,0.01,Rain,Light Rain,320,2012-10-19 03:55:00